DAL1477 KORD-KATL

Flight info

Callsign DAL1477
Flight time 1h 49m
Altitude 36000
Route CMSKY CARYN CYBIL PXV/N0443F370 HITMN NEWBB IHAVE MTHEW CHPPR1
Aircraft A321/M-SDE3FGHIRWY/LB1

Departure

Time 2026-05-05 20:38
Airport Chicago O'Hare International Airport (KORD)

Arrival

Time 2026-05-05 22:28
Airport Hartsfield Jackson Atlanta International Airport (KATL)
Time Latitude Longitude Altitude Speed Heading
2026-05-05 20:16 41.97353 -87.89166 667 ft 0 kts 38°
2026-05-05 20:28 41.97337 -87.89182 667 ft 4 kts 38°
2026-05-05 20:28 41.97316 -87.89204 668 ft 4 kts 39°
2026-05-05 20:28 41.97295 -87.89227 667 ft 4 kts 39°
2026-05-05 20:29 41.97278 -87.89246 667 ft 4 kts 50°
2026-05-05 20:29 41.97269 -87.89276 669 ft 4 kts 91°
2026-05-05 20:29 41.97269 -87.89297 669 ft 0 kts 90°
2026-05-05 20:33 41.97269 -87.89291 669 ft 4 kts 90°
2026-05-05 20:34 41.97260 -87.89142 669 ft 23 kts 117°
2026-05-05 20:34 41.97202 -87.89029 669 ft 21 kts 112°
2026-05-05 20:34 41.97195 -87.88853 669 ft 18 kts 90°
2026-05-05 20:34 41.97195 -87.88690 669 ft 17 kts 90°
2026-05-05 20:35 41.97194 -87.88537 669 ft 16 kts 90°
2026-05-05 20:35 41.97193 -87.88396 669 ft 14 kts 91°
2026-05-05 20:35 41.97190 -87.88230 668 ft 12 kts 83°
2026-05-05 20:35 41.97193 -87.88106 669 ft 16 kts 105°
2026-05-05 20:36 41.97161 -87.88042 669 ft 11 kts 152°
2026-05-05 20:36 41.97089 -87.88032 670 ft 11 kts 181°
2026-05-05 20:36 41.97015 -87.88034 671 ft 10 kts 179°
2026-05-05 20:36 41.96941 -87.88047 672 ft 14 kts 206°
2026-05-05 20:37 41.96924 -87.88061 672 ft 0 kts 216°
2026-05-05 20:37 41.96921 -87.88065 672 ft 4 kts 216°
2026-05-05 20:37 41.96711 -87.88313 670 ft 86 kts 221°
2026-05-05 20:37 41.96057 -87.89086 669 ft 160 kts 221°
2026-05-05 20:38 41.95133 -87.90188 1120 ft 188 kts 223°
2026-05-05 20:38 41.94069 -87.91348 1940 ft 204 kts 215°
2026-05-05 20:38 41.92713 -87.91981 3064 ft 212 kts 188°
2026-05-05 20:38 41.91228 -87.91778 4088 ft 221 kts 167°
2026-05-05 20:39 41.89763 -87.91085 4927 ft 224 kts 162°
2026-05-05 20:39 41.88265 -87.90355 5502 ft 236 kts 164°
2026-05-05 20:39 41.86684 -87.89643 6169 ft 240 kts 169°
2026-05-05 20:39 41.85092 -87.89166 7073 ft 228 kts 178°
2026-05-05 20:40 41.83489 -87.88986 7586 ft 237 kts 186°
2026-05-05 20:40 41.81828 -87.89020 8267 ft 236 kts 188°
2026-05-05 20:40 41.80217 -87.89046 9200 ft 228 kts 188°
2026-05-05 20:40 41.78661 -87.89010 10078 ft 220 kts 187°
2026-05-05 20:41 41.77155 -87.88906 10836 ft 213 kts 185°
2026-05-05 20:41 41.75695 -87.88734 11510 ft 210 kts 184°
2026-05-05 20:41 41.74205 -87.88477 11802 ft 226 kts 180°
2026-05-05 20:41 41.72580 -87.88298 11949 ft 243 kts 189°
2026-05-05 20:42 41.70821 -87.88397 12110 ft 264 kts 191°
2026-05-05 20:42 41.68905 -87.88550 12267 ft 287 kts 190°
2026-05-05 20:42 41.66825 -87.88655 12403 ft 311 kts 187°
2026-05-05 20:42 41.64579 -87.88676 12581 ft 332 kts 186°
2026-05-05 20:43 41.62235 -87.88634 13105 ft 340 kts 185°
2026-05-05 20:43 41.59852 -87.88564 13746 ft 345 kts 185°
2026-05-05 20:43 41.57440 -87.88492 14345 ft 348 kts 185°
2026-05-05 20:43 41.55013 -87.88430 14964 ft 350 kts 186°
2026-05-05 20:44 41.52573 -87.88378 15592 ft 351 kts 186°
2026-05-05 20:44 41.50158 -87.88333 16215 ft 353 kts 186°
2026-05-05 20:44 41.47690 -87.88293 16812 ft 356 kts 186°
2026-05-05 20:44 41.45207 -87.88255 17409 ft 358 kts 186°
2026-05-05 20:45 41.40182 -87.88173 18522 ft 364 kts 186°
2026-05-05 20:45 41.37640 -87.88130 19021 ft 367 kts 186°
2026-05-05 20:45 41.35076 -87.88089 19499 ft 369 kts 187°
2026-05-05 20:46 41.32500 -87.88049 19953 ft 372 kts 187°
2026-05-05 20:46 41.29908 -87.88005 20443 ft 374 kts 187°
2026-05-05 20:46 41.27295 -87.87961 20904 ft 377 kts 187°
2026-05-05 20:46 41.24661 -87.87918 21360 ft 380 kts 187°
2026-05-05 20:47 41.22008 -87.87878 21806 ft 383 kts 187°
2026-05-05 20:47 41.19333 -87.87839 22252 ft 386 kts 187°
2026-05-05 20:47 41.16637 -87.87799 22688 ft 389 kts 187°
2026-05-05 20:47 41.13922 -87.87758 23110 ft 392 kts 187°
2026-05-05 20:48 41.11186 -87.87714 23498 ft 395 kts 187°
2026-05-05 20:48 41.08424 -87.87668 23834 ft 398 kts 187°
2026-05-05 20:48 41.05642 -87.87621 24177 ft 401 kts 187°
2026-05-05 20:48 41.02847 -87.87575 24530 ft 403 kts 188°
2026-05-05 20:49 41.00032 -87.87529 24884 ft 406 kts 188°
2026-05-05 20:49 40.97203 -87.87486 25225 ft 408 kts 188°
2026-05-05 20:49 40.94356 -87.87442 25564 ft 410 kts 188°
2026-05-05 20:49 40.91491 -87.87395 25904 ft 413 kts 188°
2026-05-05 20:50 40.88610 -87.87346 26205 ft 415 kts 189°
2026-05-05 20:50 40.85712 -87.87300 26494 ft 419 kts 189°
2026-05-05 20:50 40.82792 -87.87251 26806 ft 421 kts 189°
2026-05-05 20:50 40.79849 -87.87203 27123 ft 424 kts 189°
2026-05-05 20:51 40.76893 -87.87158 27437 ft 426 kts 189°
2026-05-05 20:51 40.73921 -87.87114 27749 ft 428 kts 189°
2026-05-05 20:51 40.70935 -87.87072 28061 ft 431 kts 189°
2026-05-05 20:51 40.67971 -87.87025 28362 ft 433 kts 189°
2026-05-05 20:52 40.64948 -87.86976 28663 ft 435 kts 189°
2026-05-05 20:52 40.61915 -87.86927 28952 ft 437 kts 190°
2026-05-05 20:52 40.58861 -87.86879 29244 ft 440 kts 190°
2026-05-05 20:52 40.55796 -87.86831 29525 ft 442 kts 190°
2026-05-05 20:53 40.52716 -87.86782 29794 ft 444 kts 190°
2026-05-05 20:53 40.49622 -87.86731 30046 ft 446 kts 190°
2026-05-05 20:53 40.46510 -87.86681 30279 ft 448 kts 190°
2026-05-05 20:53 40.43385 -87.86632 30460 ft 451 kts 191°
2026-05-05 20:54 40.40241 -87.86583 30664 ft 454 kts 191°
2026-05-05 20:54 40.37080 -87.86533 30926 ft 455 kts 191°
2026-05-05 20:54 40.33915 -87.86480 31257 ft 454 kts 191°
2026-05-05 20:54 40.30754 -87.86428 31577 ft 455 kts 191°
2026-05-05 20:55 40.27584 -87.86336 31891 ft 456 kts 191°
2026-05-05 20:55 40.24410 -87.86202 32204 ft 457 kts 191°
2026-05-05 20:55 40.21225 -87.86041 32390 ft 460 kts 191°
2026-05-05 20:55 40.18018 -87.85874 32571 ft 463 kts 191°
2026-05-05 20:56 40.14797 -87.85706 32837 ft 464 kts 191°
2026-05-05 20:56 40.11571 -87.85544 33130 ft 464 kts 192°
2026-05-05 20:56 40.08347 -87.85394 33427 ft 464 kts 192°
2026-05-05 20:56 40.05122 -87.85252 33717 ft 464 kts 193°
2026-05-05 20:57 40.01897 -87.85117 33987 ft 464 kts 193°
2026-05-05 20:57 39.98670 -87.84985 34163 ft 465 kts 193°
2026-05-05 20:57 39.95435 -87.84852 34374 ft 466 kts 193°
2026-05-05 20:57 39.92238 -87.84719 34620 ft 465 kts 193°
2026-05-05 20:58 39.89008 -87.84581 34878 ft 465 kts 193°
2026-05-05 20:58 39.85776 -87.84440 35146 ft 464 kts 193°
2026-05-05 20:58 39.82551 -87.84295 35409 ft 463 kts 192°
2026-05-05 20:58 39.79332 -87.84148 35670 ft 463 kts 192°
2026-05-05 20:59 39.76113 -87.83999 35827 ft 462 kts 192°
2026-05-05 20:59 39.72907 -87.83851 35899 ft 459 kts 192°
2026-05-05 20:59 39.66552 -87.83564 35905 ft 455 kts 193°
2026-05-05 21:00 39.60226 -87.83306 35905 ft 455 kts 193°
2026-05-05 21:00 39.53899 -87.83048 35883 ft 454 kts 193°
2026-05-05 21:01 39.47586 -87.82775 35884 ft 454 kts 192°
2026-05-05 21:01 39.41275 -87.82495 35890 ft 454 kts 192°
2026-05-05 21:02 39.34964 -87.82217 35891 ft 454 kts 193°
2026-05-05 21:02 39.28694 -87.81947 35857 ft 453 kts 192°
2026-05-05 21:03 39.22389 -87.81681 35871 ft 453 kts 192°
2026-05-05 21:03 39.16082 -87.81416 35878 ft 453 kts 192°
2026-05-05 21:04 39.09777 -87.81152 35838 ft 453 kts 192°
2026-05-05 21:04 39.03473 -87.80890 35861 ft 453 kts 192°
2026-05-05 21:05 38.97166 -87.80616 35874 ft 453 kts 192°
2026-05-05 21:05 38.90865 -87.80341 35878 ft 453 kts 192°
2026-05-05 21:06 38.84560 -87.80073 35841 ft 453 kts 192°
2026-05-05 21:06 38.78251 -87.79808 35853 ft 454 kts 192°
2026-05-05 21:07 38.71936 -87.79537 35859 ft 454 kts 192°
2026-05-05 21:07 38.65629 -87.79273 35866 ft 454 kts 192°
2026-05-05 21:08 38.59319 -87.79009 35835 ft 454 kts 192°
2026-05-05 21:08 38.53006 -87.78743 35849 ft 454 kts 192°
2026-05-05 21:09 38.46692 -87.78482 35857 ft 454 kts 192°
2026-05-05 21:09 38.40419 -87.78214 35860 ft 454 kts 192°
2026-05-05 21:10 38.34099 -87.77940 35858 ft 454 kts 192°
2026-05-05 21:10 38.27785 -87.77678 35852 ft 454 kts 192°
2026-05-05 21:11 38.21469 -87.77421 35858 ft 454 kts 192°
2026-05-05 21:11 38.15153 -87.77165 35808 ft 454 kts 192°
2026-05-05 21:12 38.08839 -87.76904 35828 ft 454 kts 192°
2026-05-05 21:12 38.02524 -87.76636 35842 ft 454 kts 192°
2026-05-05 21:13 37.96202 -87.76344 35856 ft 459 kts 188°
2026-05-05 21:13 37.92993 -87.75698 35838 ft 476 kts 178°
2026-05-05 21:13 37.89791 -87.74370 35838 ft 493 kts 168°
2026-05-05 21:14 37.83556 -87.70539 35836 ft 499 kts 165°
2026-05-05 21:14 37.77304 -87.66666 35831 ft 501 kts 165°
2026-05-05 21:15 37.71029 -87.62812 35835 ft 502 kts 165°
2026-05-05 21:15 37.64737 -87.58964 35822 ft 503 kts 165°
2026-05-05 21:16 37.58482 -87.55134 35837 ft 503 kts 165°
2026-05-05 21:16 37.52133 -87.51254 35849 ft 504 kts 165°
2026-05-05 21:17 37.45865 -87.47433 35854 ft 504 kts 165°
2026-05-05 21:17 37.39545 -87.43596 35833 ft 505 kts 165°
2026-05-05 21:18 37.33221 -87.39761 35838 ft 504 kts 165°
2026-05-05 21:18 37.26896 -87.35932 35842 ft 505 kts 165°
2026-05-05 21:19 37.20553 -87.32095 35863 ft 506 kts 164°
2026-05-05 21:19 37.14211 -87.28261 35824 ft 506 kts 164°
2026-05-05 21:20 37.07864 -87.24431 35833 ft 507 kts 164°
2026-05-05 21:20 37.01505 -87.20600 35838 ft 508 kts 164°
2026-05-05 21:21 36.95138 -87.16773 35799 ft 508 kts 164°
2026-05-05 21:21 36.88748 -87.12945 35837 ft 510 kts 164°
2026-05-05 21:22 36.82343 -87.09112 35852 ft 511 kts 164°
2026-05-05 21:22 36.75930 -87.05285 35859 ft 511 kts 164°
2026-05-05 21:23 36.69522 -87.01463 35836 ft 510 kts 164°
2026-05-05 21:23 36.63113 -86.97649 35844 ft 511 kts 164°
2026-05-05 21:24 36.56700 -86.93845 35856 ft 511 kts 164°
2026-05-05 21:24 36.50278 -86.90043 35865 ft 511 kts 164°
2026-05-05 21:25 36.44936 -86.86878 35835 ft 512 kts 164°
2026-05-05 21:25 36.37457 -86.82452 35853 ft 512 kts 164°
2026-05-05 21:26 36.31019 -86.78656 35860 ft 513 kts 164°
2026-05-05 21:26 36.24572 -86.74864 35869 ft 513 kts 164°
2026-05-05 21:27 36.19167 -86.71694 35864 ft 513 kts 164°
2026-05-05 21:27 36.12715 -86.67883 35882 ft 516 kts 162°
2026-05-05 21:28 36.06413 -86.63644 35892 ft 522 kts 158°
2026-05-05 21:28 36.00164 -86.59045 35906 ft 523 kts 158°
2026-05-05 21:29 35.93905 -86.54492 35910 ft 522 kts 158°
2026-05-05 21:29 35.87595 -86.50058 35901 ft 521 kts 159°
2026-05-05 21:30 35.81272 -86.45681 35913 ft 522 kts 159°
2026-05-05 21:30 35.74956 -86.41286 35914 ft 522 kts 159°
2026-05-05 21:31 35.68645 -86.36840 35893 ft 523 kts 158°
2026-05-05 21:31 35.62358 -86.32349 35899 ft 523 kts 158°
2026-05-05 21:32 35.56062 -86.27867 35907 ft 523 kts 158°
2026-05-05 21:32 35.49762 -86.23415 35935 ft 523 kts 158°
2026-05-05 21:33 35.43511 -86.18956 35903 ft 527 kts 154°
2026-05-05 21:33 35.37632 -86.13438 35957 ft 535 kts 147°
2026-05-05 21:34 35.31803 -86.07772 35955 ft 535 kts 148°
2026-05-05 21:34 35.25955 -86.02109 35937 ft 537 kts 148°
2026-05-05 21:35 35.20074 -85.96465 35939 ft 538 kts 148°
2026-05-05 21:35 35.14172 -85.90829 35932 ft 539 kts 148°
2026-05-05 21:36 35.08243 -85.85185 35947 ft 541 kts 148°
2026-05-05 21:36 35.02314 -85.79530 35959 ft 541 kts 148°
2026-05-05 21:37 34.96376 -85.73880 35967 ft 541 kts 148°
2026-05-05 21:37 34.90433 -85.68240 35931 ft 542 kts 148°
2026-05-05 21:38 34.84477 -85.62604 35945 ft 542 kts 148°
2026-05-05 21:38 34.78511 -85.56969 35415 ft 546 kts 148°
2026-05-05 21:39 34.75475 -85.54105 34341 ft 558 kts 148°
2026-05-05 21:39 34.72432 -85.51224 33480 ft 547 kts 147°
2026-05-05 21:39 34.69478 -85.48416 33142 ft 534 kts 147°
2026-05-05 21:39 34.66596 -85.45682 32927 ft 531 kts 147°
2026-05-05 21:40 34.63708 -85.42953 32961 ft 520 kts 147°
2026-05-05 21:40 34.60877 -85.40285 32976 ft 511 kts 147°
2026-05-05 21:40 34.55230 -85.34991 32979 ft 520 kts 147°
2026-05-05 21:41 34.49415 -85.29564 32977 ft 532 kts 147°
2026-05-05 21:41 34.43545 -85.24057 32980 ft 534 kts 147°
2026-05-05 21:42 34.37663 -85.18543 32945 ft 534 kts 147°
2026-05-05 21:42 34.34718 -85.15794 32328 ft 538 kts 147°
2026-05-05 21:42 34.31759 -85.13036 31239 ft 534 kts 147°
2026-05-05 21:43 34.28845 -85.10321 30245 ft 522 kts 146°
2026-05-05 21:43 34.26022 -85.07684 29592 ft 500 kts 146°
2026-05-05 21:43 34.23331 -85.05163 28931 ft 481 kts 146°
2026-05-05 21:43 34.20720 -85.02724 28059 ft 469 kts 147°
2026-05-05 21:44 34.18182 -85.00363 27633 ft 453 kts 147°
2026-05-05 21:44 34.15671 -84.98040 26812 ft 459 kts 147°
2026-05-05 21:44 34.13099 -84.95837 26054 ft 458 kts 156°
2026-05-05 21:44 34.10216 -84.94419 25652 ft 438 kts 172°
2026-05-05 21:45 34.07242 -84.93885 25346 ft 417 kts 186°
2026-05-05 21:45 34.04426 -84.94194 24935 ft 398 kts 201°
2026-05-05 21:45 34.01899 -84.95231 24483 ft 382 kts 214°
2026-05-05 21:45 33.99679 -84.96875 24029 ft 369 kts 226°
2026-05-05 21:46 33.97856 -84.98972 23574 ft 357 kts 237°
2026-05-05 21:46 33.96468 -85.01391 23049 ft 347 kts 247°
2026-05-05 21:46 33.95524 -85.04027 22522 ft 340 kts 257°
2026-05-05 21:46 33.95034 -85.06779 22017 ft 334 kts 266°
2026-05-05 21:47 33.94990 -85.09560 21506 ft 331 kts 276°
2026-05-05 21:47 33.95371 -85.12277 21007 ft 329 kts 285°
2026-05-05 21:47 33.96171 -85.14848 20534 ft 328 kts 295°
2026-05-05 21:47 33.97361 -85.17194 20042 ft 329 kts 304°
2026-05-05 21:48 33.98898 -85.19247 19576 ft 331 kts 312°
2026-05-05 21:48 34.00625 -85.21092 19109 ft 332 kts 316°
2026-05-05 21:48 34.02446 -85.22812 18655 ft 332 kts 319°
2026-05-05 21:48 34.04303 -85.24467 18208 ft 332 kts 320°
2026-05-05 21:49 34.06163 -85.26101 17708 ft 330 kts 319°
2026-05-05 21:49 34.08006 -85.27731 17255 ft 327 kts 319°
2026-05-05 21:49 34.09820 -85.29359 16809 ft 324 kts 319°
2026-05-05 21:49 34.11729 -85.30811 16384 ft 325 kts 328°
2026-05-05 21:50 34.13826 -85.31857 15965 ft 329 kts 337°
2026-05-05 21:50 34.16083 -85.32403 15528 ft 334 kts 348°
2026-05-05 21:50 34.18423 -85.32400 15126 ft 340 kts 359°
2026-05-05 21:50 34.20757 -85.31832 14732 ft 345 kts 11°
2026-05-05 21:51 34.22988 -85.30703 14329 ft 351 kts 22°
2026-05-05 21:51 34.25018 -85.29021 13944 ft 357 kts 35°
2026-05-05 21:51 34.26741 -85.26840 13521 ft 362 kts 48°
2026-05-05 21:51 34.28059 -85.24276 13100 ft 366 kts 62°
2026-05-05 21:52 34.29269 -85.18306 12963 ft 371 kts 88°
2026-05-05 21:52 34.29092 -85.15201 12962 ft 371 kts 102°
2026-05-05 21:52 34.28365 -85.12224 12963 ft 368 kts 116°
2026-05-05 21:53 34.27140 -85.09534 12961 ft 364 kts 129°
2026-05-05 21:53 34.25504 -85.07235 12964 ft 359 kts 140°
2026-05-05 21:53 34.23664 -85.05218 12963 ft 356 kts 145°
2026-05-05 21:53 34.21731 -85.03364 12962 ft 353 kts 148°
2026-05-05 21:54 34.19761 -85.01603 12988 ft 352 kts 149°
2026-05-05 21:54 34.17776 -84.99868 12987 ft 352 kts 149°
2026-05-05 21:54 34.15799 -84.98131 12989 ft 352 kts 149°
2026-05-05 21:54 34.13849 -84.96385 12985 ft 342 kts 148°
2026-05-05 21:55 34.11951 -84.94629 12993 ft 349 kts 148°
2026-05-05 21:55 34.10026 -84.92816 12983 ft 353 kts 146°
2026-05-05 21:55 34.08097 -84.90975 12990 ft 354 kts 146°
2026-05-05 21:55 34.06163 -84.89123 12991 ft 355 kts 146°
2026-05-05 21:56 34.04231 -84.87278 12991 ft 354 kts 146°
2026-05-05 21:56 34.02295 -84.85441 12990 ft 354 kts 146°
2026-05-05 21:56 34.00357 -84.83607 12883 ft 355 kts 147°
2026-05-05 21:56 33.98385 -84.81751 12046 ft 364 kts 147°
2026-05-05 21:57 33.96382 -84.79867 11508 ft 365 kts 146°
2026-05-05 21:57 33.94395 -84.77992 11114 ft 361 kts 147°
2026-05-05 21:57 33.92438 -84.76141 10875 ft 352 kts 147°
2026-05-05 21:57 33.90545 -84.74354 10716 ft 341 kts 146°
2026-05-05 21:58 33.88696 -84.72610 10524 ft 336 kts 147°
2026-05-05 21:58 33.86862 -84.70886 10350 ft 333 kts 147°
2026-05-05 21:58 33.85055 -84.69187 10202 ft 324 kts 147°
2026-05-05 21:58 33.83312 -84.67545 10039 ft 314 kts 147°
2026-05-05 21:59 33.81634 -84.65968 9850 ft 307 kts 147°
2026-05-05 21:59 33.79921 -84.64366 9743 ft 308 kts 147°
2026-05-05 21:59 33.78230 -84.62785 9588 ft 307 kts 147°
2026-05-05 21:59 33.76552 -84.61213 9433 ft 305 kts 147°
2026-05-05 22:00 33.75003 -84.59515 9279 ft 308 kts 133°
2026-05-05 22:00 33.73880 -84.57313 9120 ft 312 kts 115°
2026-05-05 22:00 33.73338 -84.54793 8978 ft 313 kts 96°
2026-05-05 22:00 33.73307 -84.52142 8990 ft 314 kts 91°
2026-05-05 22:01 33.73315 -84.49513 8993 ft 315 kts 91°
2026-05-05 22:01 33.73311 -84.46915 8993 ft 314 kts 91°
2026-05-05 22:01 33.73307 -84.44259 8993 ft 314 kts 91°
2026-05-05 22:01 33.73305 -84.41670 8990 ft 315 kts 91°
2026-05-05 22:02 33.73302 -84.39042 8991 ft 315 kts 91°
2026-05-05 22:02 33.73299 -84.36411 9007 ft 314 kts 91°
2026-05-05 22:02 33.73298 -84.33787 9009 ft 315 kts 91°
2026-05-05 22:02 33.73299 -84.31157 9009 ft 315 kts 91°
2026-05-05 22:03 33.73299 -84.28532 9004 ft 314 kts 90°
2026-05-05 22:03 33.73304 -84.25913 9007 ft 313 kts 90°
2026-05-05 22:03 33.73307 -84.23298 8770 ft 317 kts 91°
2026-05-05 22:03 33.73307 -84.20588 7934 ft 330 kts 91°
2026-05-05 22:04 33.73305 -84.17785 7126 ft 341 kts 92°
2026-05-05 22:04 33.73306 -84.14904 6328 ft 349 kts 93°
2026-05-05 22:04 33.73305 -84.12005 5505 ft 340 kts 93°
2026-05-05 22:04 33.73278 -84.09274 5152 ft 310 kts 98°
2026-05-05 22:05 33.72721 -84.06966 5001 ft 272 kts 125°
2026-05-05 22:05 33.71455 -84.05410 5006 ft 260 kts 153°
2026-05-05 22:05 33.69800 -84.04759 4995 ft 243 kts 176°
2026-05-05 22:05 33.68185 -84.04902 4991 ft 226 kts 196°
2026-05-05 22:06 33.66806 -84.05668 4993 ft 215 kts 214°
2026-05-05 22:06 33.65745 -84.06914 4990 ft 215 kts 232°
2026-05-05 22:06 33.65082 -84.08533 4994 ft 220 kts 251°
2026-05-05 22:06 33.64906 -84.10370 4999 ft 224 kts 266°
2026-05-05 22:07 33.64914 -84.12244 4996 ft 225 kts 265°
2026-05-05 22:07 33.64922 -84.14100 4998 ft 226 kts 266°
2026-05-05 22:07 33.64927 -84.15989 4921 ft 228 kts 265°
2026-05-05 22:07 33.64931 -84.17887 4681 ft 227 kts 265°
2026-05-05 22:08 33.64934 -84.19777 4409 ft 227 kts 265°
2026-05-05 22:08 33.64937 -84.21671 4105 ft 227 kts 266°
2026-05-05 22:08 33.64940 -84.23567 3810 ft 228 kts 265°
2026-05-05 22:08 33.64943 -84.25467 3518 ft 228 kts 265°
2026-05-05 22:09 33.64945 -84.27382 3220 ft 230 kts 265°
2026-05-05 22:09 33.64947 -84.29294 2924 ft 229 kts 266°
2026-05-05 22:09 33.64950 -84.31184 2642 ft 225 kts 266°
2026-05-05 22:09 33.64951 -84.33056 2351 ft 223 kts 264°
2026-05-05 22:10 33.64955 -84.34839 2072 ft 203 kts 265°
2026-05-05 22:10 33.64957 -84.36449 1807 ft 183 kts 266°
2026-05-05 22:10 33.64956 -84.37927 1522 ft 172 kts 268°
2026-05-05 22:10 33.64955 -84.39309 1298 ft 161 kts 267°
2026-05-05 22:11 33.64957 -84.40615 1107 ft 153 kts 267°
2026-05-05 22:11 33.64974 -84.41850 1042 ft 140 kts 269°
2026-05-05 22:11 33.65002 -84.43055 1351 ft 156 kts 266°
2026-05-05 22:11 33.65027 -84.44404 1981 ft 167 kts 266°
2026-05-05 22:12 33.65038 -84.45830 2508 ft 174 kts 264°
2026-05-05 22:12 33.65105 -84.47343 2799 ft 197 kts 283°
2026-05-05 22:12 33.65931 -84.48782 3041 ft 224 kts 310°
2026-05-05 22:12 33.67061 -84.50169 3378 ft 237 kts 311°
2026-05-05 22:13 33.68203 -84.51509 4245 ft 226 kts 311°
2026-05-05 22:13 33.69395 -84.52747 4832 ft 232 kts 326°
2026-05-05 22:13 33.70925 -84.53308 4946 ft 243 kts
2026-05-05 22:13 33.72531 -84.52818 5002 ft 236 kts 32°
2026-05-05 22:14 33.73667 -84.51493 4994 ft 225 kts 64°
2026-05-05 22:14 33.74122 -84.49738 4994 ft 218 kts 92°
2026-05-05 22:14 33.73879 -84.47995 4997 ft 210 kts 113°
2026-05-05 22:14 33.73439 -84.46322 4996 ft 210 kts 112°
2026-05-05 22:15 33.73010 -84.44653 4995 ft 210 kts 112°
2026-05-05 22:15 33.72582 -84.42977 4988 ft 210 kts 112°
2026-05-05 22:15 33.72154 -84.41299 4991 ft 211 kts 112°
2026-05-05 22:15 33.71723 -84.39610 4994 ft 212 kts 112°
2026-05-05 22:16 33.71292 -84.37917 4992 ft 212 kts 112°
2026-05-05 22:16 33.70861 -84.36228 5012 ft 212 kts 112°
2026-05-05 22:16 33.70432 -84.34539 5013 ft 210 kts 112°
2026-05-05 22:16 33.70004 -84.32862 5009 ft 210 kts 112°
2026-05-05 22:17 33.69574 -84.31177 5008 ft 211 kts 112°
2026-05-05 22:17 33.69142 -84.29490 5008 ft 211 kts 112°
2026-05-05 22:17 33.68708 -84.27802 5008 ft 212 kts 112°
2026-05-05 22:17 33.68274 -84.26113 5011 ft 212 kts 111°
2026-05-05 22:18 33.67988 -84.24995 5010 ft 211 kts 112°
2026-05-05 22:18 33.67559 -84.23316 5009 ft 210 kts 112°
2026-05-05 22:18 33.67130 -84.21645 5006 ft 209 kts 112°
2026-05-05 22:18 33.66703 -84.19977 5005 ft 209 kts 112°
2026-05-05 22:19 33.66136 -84.17772 4997 ft 210 kts 112°
2026-05-05 22:19 33.65707 -84.16098 5000 ft 211 kts 111°
2026-05-05 22:19 33.65415 -84.14963 4996 ft 210 kts 112°
2026-05-05 22:19 33.64986 -84.13289 4997 ft 210 kts 112°
2026-05-05 22:20 33.64558 -84.11617 4996 ft 210 kts 112°
2026-05-05 22:20 33.64131 -84.09936 4996 ft 211 kts 112°
2026-05-05 22:20 33.63569 -84.08367 4980 ft 204 kts 135°
2026-05-05 22:20 33.62419 -84.07506 4993 ft 194 kts 171°
2026-05-05 22:21 33.61105 -84.07676 4994 ft 194 kts 205°
2026-05-05 22:21 33.60134 -84.08801 4994 ft 202 kts 241°
2026-05-05 22:21 33.59963 -84.10482 4990 ft 214 kts 281°
2026-05-05 22:21 33.60664 -84.12080 5022 ft 214 kts 297°
2026-05-05 22:22 33.61387 -84.13538 5002 ft 193 kts 296°
2026-05-05 22:22 33.62034 -84.14863 4986 ft 177 kts 295°
2026-05-05 22:22 33.62651 -84.16135 4896 ft 176 kts 295°
2026-05-05 22:22 33.63263 -84.17398 4733 ft 175 kts 295°
2026-05-05 22:23 33.63874 -84.18662 4553 ft 175 kts 295°
2026-05-05 22:23 33.64452 -84.19928 4338 ft 171 kts 287°
2026-05-05 22:23 33.64755 -84.21280 4151 ft 167 kts 272°
2026-05-05 22:23 33.64871 -84.22658 3959 ft 165 kts 267°
2026-05-05 22:24 33.64915 -84.24027 3740 ft 163 kts 264°
2026-05-05 22:24 33.64933 -84.25387 3524 ft 163 kts 263°
2026-05-05 22:24 33.64941 -84.26744 3308 ft 162 kts 263°
2026-05-05 22:24 33.64946 -84.28068 3111 ft 154 kts 264°
2026-05-05 22:25 33.64948 -84.29327 2909 ft 149 kts 263°
2026-05-05 22:25 33.64949 -84.30575 2726 ft 150 kts 263°
2026-05-05 22:25 33.64950 -84.31822 2530 ft 149 kts 262°
2026-05-05 22:25 33.64951 -84.33068 2338 ft 149 kts 263°
2026-05-05 22:26 33.64952 -84.34293 2134 ft 146 kts 262°
2026-05-05 22:26 33.64953 -84.35498 1948 ft 143 kts 264°
2026-05-05 22:26 33.64953 -84.36688 1759 ft 143 kts 264°
2026-05-05 22:26 33.64953 -84.37879 1543 ft 143 kts 266°
2026-05-05 22:27 33.64954 -84.39095 1344 ft 147 kts 266°
2026-05-05 22:27 33.64953 -84.40336 1169 ft 150 kts 265°
2026-05-05 22:27 33.64954 -84.41573 1039 ft 143 kts 265°
2026-05-05 22:27 33.64951 -84.42513 1036 ft 71 kts 270°
2026-05-05 22:28 33.64952 -84.42958 1035 ft 46 kts 270°
2026-05-05 22:28 33.64904 -84.43239 1036 ft 23 kts 243°
2026-05-05 22:28 33.64883 -84.43285 1036 ft 0 kts 239°
2026-05-05 22:29 33.64865 -84.43327 1035 ft 18 kts 249°
2026-05-05 22:30 33.64843 -84.43496 1036 ft 17 kts 250°
2026-05-05 22:30 33.64759 -84.43576 1036 ft 16 kts 208°
2026-05-05 22:30 33.64662 -84.43640 1035 ft 16 kts 210°
2026-05-05 22:30 33.64566 -84.43705 1035 ft 16 kts 202°
2026-05-05 22:31 33.64468 -84.43701 1036 ft 12 kts 126°
2026-05-05 22:31 33.64459 -84.43602 1036 ft 12 kts 89°
2026-05-05 22:31 33.64460 -84.43506 1036 ft 12 kts 90°
2026-05-05 22:31 33.64495 -84.43427 1036 ft 6 kts 357°
2026-05-05 22:32 33.64540 -84.43483 1036 ft 17 kts 284°
2026-05-05 22:32 33.64536 -84.43672 1036 ft 23 kts 243°
2026-05-05 22:32 33.64418 -84.43788 1035 ft 22 kts 186°
2026-05-05 22:32 33.64301 -84.43790 1035 ft 10 kts 181°
2026-05-05 22:33 33.64285 -84.43792 1036 ft 7 kts 193°
2026-05-05 22:33 33.64267 -84.43837 1036 ft 5 kts 263°
2026-05-05 22:33 33.64266 -84.43853 1036 ft 0 kts 266°
2026-05-05 22:33 33.64266 -84.43857 1035 ft 2 kts 268°
2026-05-05 22:34 33.64266 -84.43868 1036 ft 0 kts 269°